Wetterdaten: Donnerstag, 09.08.2012
Datum Zeit Temperatur Luftfeuchte Regen Wind Richtung Richtung Taupunkt Windchill Windben
09.08.2012 00:00 11,6 C 86 % 0,0 l/m 0,0 km/h (0 Bft) N-NO 22 9,3 C 10,4 C 0,0 km/h (0 Bft)
09.08.2012 00:05 11,5 C 86 % 0,0 l/m 0,0 km/h (0 Bft) N-NO 22 9,2 C 10,4 C 0,0 km/h (0 Bft)
09.08.2012 00:10 11,7 C 87 % 0,0 l/m 0,0 km/h (0 Bft) N-NO 22 9,6 C 10,5 C 0,0 km/h (0 Bft)
09.08.2012 00:15 11,8 C 87 % 0,0 l/m 0,0 km/h (0 Bft) NO 45 9,7 C 10,5 C 0,0 km/h (0 Bft)
09.08.2012 00:20 11,9 C 87 % 0,0 l/m 0,0 km/h (0 Bft) NO 45 9,8 C 10,5 C 0,0 km/h (0 Bft)
09.08.2012 00:25 11,6 C 87 % 0,0 l/m 0,0 km/h (0 Bft) N-NO 22 9,5 C 10,5 C 0,0 km/h (0 Bft)
09.08.2012 00:30 11,6 C 87 % 0,0 l/m 0,0 km/h (0 Bft) NO 45 9,5 C 10,4 C 0,0 km/h (0 Bft)
09.08.2012 00:35 11,4 C 87 % 0,0 l/m 0,0 km/h (0 Bft) NO 45 9,3 C 10,4 C 0,0 km/h (0 Bft)
09.08.2012 00:40 11,5 C 88 % 0,0 l/m 0,0 km/h (0 Bft) O-NO 67 9,6 C 10,3 C 0,0 km/h (0 Bft)
09.08.2012 00:45 11,7 C 88 % 0,0 l/m 0,0 km/h (0 Bft) N 360 9,8 C 10,4 C 0,0 km/h (0 Bft)
09.08.2012 00:50 11,9 C 88 % 0,0 l/m 0,0 km/h (0 Bft) N-NO 22 10,0 C 10,6 C 0,0 km/h (0 Bft)
09.08.2012 00:55 11,9 C 88 % 0,0 l/m 0,0 km/h (0 Bft) W-SW 247 10,0 C 10,7 C 0,0 km/h (0 Bft)
09.08.2012 01:00 11,6 C 88 % 0,0 l/m 0,0 km/h (0 Bft) O-SO 112 9,7 C 10,6 C 0,0 km/h (0 Bft)
09.08.2012 01:05 11,3 C 88 % 0,0 l/m 0,0 km/h (0 Bft) W-NW 292 9,4 C 10,4 C 0,0 km/h (0 Bft)
09.08.2012 01:10 11,1 C 88 % 0,0 l/m 0,0 km/h (0 Bft) W-SW 247 9,2 C 10,3 C 0,0 km/h (0 Bft)
09.08.2012 01:15 11,1 C 88 % 0,0 l/m 0,0 km/h (0 Bft) N-NO 22 9,2 C 10,2 C 0,0 km/h (0 Bft)
09.08.2012 01:20 11,2 C 88 % 0,0 l/m 0,0 km/h (0 Bft) NO 45 9,3 C 10,2 C 0,0 km/h (0 Bft)
09.08.2012 01:25 11,3 C 88 % 0,0 l/m 0,2 km/h (0 Bft) N-NO 22 9,4 C 10,3 C 0,0 km/h (0 Bft)
09.08.2012 01:30 11,2 C 88 % 0,0 l/m 0,2 km/h (0 Bft) NW 315 9,3 C 10,4 C 0,0 km/h (0 Bft)
09.08.2012 01:35 11,1 C 89 % 0,0 l/m 0,0 km/h (0 Bft) N-NW 337 9,4 C 10,4 C 0,0 km/h (0 Bft)
09.08.2012 01:40 10,8 C 89 % 0,0 l/m 0,0 km/h (0 Bft) N-NO 22 9,1 C 10,3 C 0,0 km/h (0 Bft)
09.08.2012 01:45 10,9 C 89 % 0,0 l/m 0,0 km/h (0 Bft) N 360 9,2 C 10,1 C 0,0 km/h (0 Bft)
09.08.2012 01:50 10,8 C 89 % 0,0 l/m 0,0 km/h (0 Bft) N 360 9,1 C 10,0 C 0,0 km/h (0 Bft)
09.08.2012 01:55 10,8 C 89 % 0,0 l/m 0,0 km/h (0 Bft) S-SW 202 9,1 C 9,8 C 0,0 km/h (0 Bft)
09.08.2012 02:00 10,6 C 89 % 0,0 l/m 0,0 km/h (0 Bft) O 90 8,9 C 9,8 C 0,0 km/h (0 Bft)
09.08.2012 02:05 10,5 C 89 % 0,0 l/m 0,0 km/h (0 Bft) W-NW 292 8,8 C 9,7 C 0,0 km/h (0 Bft)
09.08.2012 02:10 10,5 C 89 % 0,0 l/m 0,0 km/h (0 Bft) NO 45 8,8 C 9,8 C 0,0 km/h (0 Bft)
09.08.2012 02:15 10,7 C 89 % 0,0 l/m 0,2 km/h (0 Bft) N-NO 22 9,0 C 9,8 C 1,6 km/h (1 Bft)
09.08.2012 02:20 10,8 C 90 % 0,0 l/m 0,2 km/h (0 Bft) NO 45 9,2 C 10,0 C 0,0 km/h (0 Bft)
09.08.2012 02:25 10,8 C 90 % 0,0 l/m 0,2 km/h (0 Bft) N-NO 22 9,2 C 10,0 C 0,0 km/h (0 Bft)
09.08.2012 02:30 10,7 C 90 % 0,0 l/m 0,0 km/h (0 Bft) N-NO 22 9,1 C 9,8 C 0,0 km/h (0 Bft)
09.08.2012 02:35 10,7 C 90 % 0,0 l/m 0,0 km/h (0 Bft) N-NO 22 9,1 C 9,8 C 0,0 km/h (0 Bft)
09.08.2012 02:40 10,2 C 90 % 0,0 l/m 0,0 km/h (0 Bft) NO 45 8,6 C 9,7 C 0,0 km/h (0 Bft)
09.08.2012 02:45 9,9 C 90 % 0,0 l/m 0,0 km/h (0 Bft) W-SW 247 8,3 C 9,3 C 0,0 km/h (0 Bft)
09.08.2012 02:50 9,8 C 89 % 0,0 l/m 0,0 km/h (0 Bft) N-NW 337 8,1 C 9,2 C 0,0 km/h (0 Bft)
09.08.2012 02:55 9,8 C 90 % 0,0 l/m 0,0 km/h (0 Bft) N-NW 337 8,2 C 9,2 C 0,0 km/h (0 Bft)
09.08.2012 03:00 9,8 C 90 % 0,0 l/m 0,0 km/h (0 Bft) N 360 8,2 C 9,2 C 0,0 km/h (0 Bft)
09.08.2012 03:05 9,8 C 90 % 0,0 l/m 0,0 km/h (0 Bft) W-NW 292 8,2 C 9,2 C 0,0 km/h (0 Bft)
09.08.2012 03:10 9,8 C 90 % 0,0 l/m 0,0 km/h (0 Bft) W-NW 292 8,2 C 9,2 C 0,0 km/h (0 Bft)
09.08.2012 03:15 9,7 C 90 % 0,0 l/m 0,0 km/h (0 Bft) W-NW 292 8,1 C 9,2 C 0,0 km/h (0 Bft)
09.08.2012 03:20 9,7 C 90 % 0,0 l/m 0,0 km/h (0 Bft) NW 315 8,1 C 9,2 C 0,0 km/h (0 Bft)
09.08.2012 03:25 9,6 C 90 % 0,0 l/m 0,0 km/h (0 Bft) N-NW 337 8,0 C 9,2 C 0,0 km/h (0 Bft)
09.08.2012 03:30 9,7 C 90 % 0,0 l/m 0,0 km/h (0 Bft) NW 315 8,1 C 9,2 C 0,0 km/h (0 Bft)
09.08.2012 03:35 9,7 C 90 % 0,0 l/m 0,0 km/h (0 Bft) N 360 8,1 C 9,2 C 0,0 km/h (0 Bft)
09.08.2012 03:40 10,0 C 90 % 0,0 l/m 0,0 km/h (0 Bft) O 90 8,4 C 9,2 C 0,0 km/h (0 Bft)
09.08.2012 03:45 10,0 C 91 % 0,0 l/m 0,0 km/h (0 Bft) N-NO 22 8,6 C 9,3 C 0,0 km/h (0 Bft)
09.08.2012 03:50 9,8 C 91 % 0,0 l/m 0,0 km/h (0 Bft) N 360 8,4 C 9,2 C 0,0 km/h (0 Bft)
09.08.2012 03:55 9,8 C 91 % 0,0 l/m 0,0 km/h (0 Bft) S-SW 202 8,4 C 9,2 C 0,0 km/h (0 Bft)
09.08.2012 04:00 9,6 C 91 % 0,0 l/m 0,0 km/h (0 Bft) W-SW 247 8,2 C 9,2 C 0,0 km/h (0 Bft)
09.08.2012 04:05 9,5 C 91 % 0,0 l/m 0,0 km/h (0 Bft) N-NO 22 8,1 C 8,9 C 0,0 km/h (0 Bft)
09.08.2012 04:10 9,6 C 91 % 0,0 l/m 0,0 km/h (0 Bft) NO 45 8,2 C 8,9 C 0,0 km/h (0 Bft)
09.08.2012 04:15 9,6 C 91 % 0,0 l/m 0,0 km/h (0 Bft) NW 315 8,2 C 9,0 C 0,0 km/h (0 Bft)
09.08.2012 04:20 10,1 C 91 % 0,0 l/m 0,2 km/h (0 Bft) N-NO 22 8,7 C 9,1 C 1,8 km/h (1 Bft)
09.08.2012 04:25 9,9 C 92 % 0,0 l/m 0,2 km/h (0 Bft) W-SW 247 8,7 C 9,3 C 0,0 km/h (0 Bft)
09.08.2012 04:30 9,6 C 91 % 0,0 l/m 0,2 km/h (0 Bft) W-NW 292 8,2 C 9,2 C 0,0 km/h (0 Bft)
09.08.2012 04:35 9,4 C 91 % 0,0 l/m 0,0 km/h (0 Bft) NW 315 8,0 C 8,9 C 0,0 km/h (0 Bft)
09.08.2012 04:40 10,0 C 91 % 0,0 l/m 0,0 km/h (0 Bft) NO 45 8,6 C 9,0 C 0,0 km/h (0 Bft)
09.08.2012 04:45 10,1 C 92 % 0,0 l/m 0,0 km/h (0 Bft) N 360 8,9 C 9,4 C 0,0 km/h (0 Bft)
09.08.2012 04:50 9,9 C 92 % 0,0 l/m 0,0 km/h (0 Bft) N 360 8,7 C 9,3 C 0,0 km/h (0 Bft)
09.08.2012 04:55 10,0 C 92 % 0,0 l/m 0,0 km/h (0 Bft) S-SW 202 8,8 C 9,3 C 0,0 km/h (0 Bft)
09.08.2012 05:00 9,8 C 92 % 0,0 l/m 0,0 km/h (0 Bft) NW 315 8,6 C 9,3 C 0,0 km/h (0 Bft)
09.08.2012 05:05 10,0 C 92 % 0,0 l/m 0,0 km/h (0 Bft) N 360 8,8 C 9,3 C 0,0 km/h (0 Bft)
09.08.2012 05:10 10,1 C 92 % 0,0 l/m 0,0 km/h (0 Bft) NO 45 8,9 C 9,4 C 0,0 km/h (0 Bft)
09.08.2012 05:15 10,3 C 92 % 0,0 l/m 0,0 km/h (0 Bft) O 90 9,1 C 9,6 C 1,9 km/h (1 Bft)
09.08.2012 05:20 10,5 C 92 % 0,0 l/m 0,2 km/h (0 Bft) S-SO 157 9,3 C 9,9 C 0,0 km/h (0 Bft)
09.08.2012 05:25 10,3 C 92 % 0,0 l/m 0,0 km/h (0 Bft) S 180 9,1 C 10,0 C 0,0 km/h (0 Bft)
09.08.2012 05:30 9,9 C 92 % 0,0 l/m 0,0 km/h (0 Bft) S 180 8,7 C 9,8 C 0,0 km/h (0 Bft)
09.08.2012 05:35 9,9 C 92 % 0,0 l/m 0,0 km/h (0 Bft) N 360 8,7 C 9,5 C 0,0 km/h (0 Bft)
09.08.2012 05:40 10,0 C 92 % 0,0 l/m 0,0 km/h (0 Bft) N 360 8,8 C 9,4 C 0,0 km/h (0 Bft)
09.08.2012 05:45 10,0 C 92 % 0,0 l/m 0,0 km/h (0 Bft) N-NO 22 8,8 C 9,6 C 0,0 km/h (0 Bft)
09.08.2012 05:50 9,9 C 92 % 0,0 l/m 0,0 km/h (0 Bft) W-NW 292 8,7 C 9,6 C 0,0 km/h (0 Bft)
09.08.2012 05:55 9,8 C 92 % 0,0 l/m 0,0 km/h (0 Bft) N 360 8,6 C 9,4 C 0,0 km/h (0 Bft)
09.08.2012 06:00 9,8 C 92 % 0,0 l/m 0,0 km/h (0 Bft) N-NO 22 8,6 C 9,4 C 0,0 km/h (0 Bft)
09.08.2012 06:05 9,6 C 92 % 0,0 l/m 0,0 km/h (0 Bft) S 180 8,4 C 9,4 C 0,0 km/h (0 Bft)
09.08.2012 06:10 9,7 C 92 % 0,0 l/m 0,0 km/h (0 Bft) N 360 8,5 C 9,2 C 0,0 km/h (0 Bft)
09.08.2012 06:15 9,5 C 92 % 0,0 l/m 0,0 km/h (0 Bft) W-SW 247 8,3 C 9,2 C 0,0 km/h (0 Bft)
09.08.2012 06:20 9,6 C 92 % 0,0 l/m 0,0 km/h (0 Bft) N-NW 337 8,4 C 9,1 C 0,0 km/h (0 Bft)
09.08.2012 06:25 9,6 C 92 % 0,0 l/m 0,0 km/h (0 Bft) N-NW 337 8,4 C 9,2 C 0,0 km/h (0 Bft)
09.08.2012 06:30 9,6 C 92 % 0,0 l/m 0,0 km/h (0 Bft) N-NW 337 8,4 C 9,2 C 0,0 km/h (0 Bft)
09.08.2012 06:35 9,6 C 92 % 0,0 l/m 0,0 km/h (0 Bft) W-NW 292 8,4 C 9,2 C 0,0 km/h (0 Bft)
09.08.2012 06:40 9,6 C 92 % 0,0 l/m 0,0 km/h (0 Bft) N-NW 337 8,4 C 9,2 C 0,0 km/h (0 Bft)
09.08.2012 06:45 9,9 C 92 % 0,0 l/m 0,0 km/h (0 Bft) NO 45 8,7 C 9,4 C 0,0 km/h (0 Bft)
09.08.2012 06:50 10,1 C 92 % 0,0 l/m 0,0 km/h (0 Bft) NO 45 8,9 C 9,7 C 0,0 km/h (0 Bft)
09.08.2012 06:55 10,4 C 92 % 0,0 l/m 0,0 km/h (0 Bft) N-NO 22 9,2 C 9,9 C 0,0 km/h (0 Bft)
09.08.2012 07:00 10,5 C 92 % 0,0 l/m 0,0 km/h (0 Bft) N-NO 22 9,3 C 10,0 C 0,0 km/h (0 Bft)
09.08.2012 07:05 10,5 C 92 % 0,0 l/m 0,0 km/h (0 Bft) O-NO 67 9,3 C 10,2 C 0,0 km/h (0 Bft)
09.08.2012 07:10 10,5 C 92 % 0,0 l/m 0,0 km/h (0 Bft) NO 45 9,3 C 10,3 C 0,0 km/h (0 Bft)
09.08.2012 07:15 10,8 C 92 % 0,0 l/m 0,0 km/h (0 Bft) NO 45 9,6 C 10,6 C 0,0 km/h (0 Bft)
09.08.2012 07:20 10,9 C 92 % 0,0 l/m 0,0 km/h (0 Bft) SW 225 9,7 C 10,9 C 0,0 km/h (0 Bft)
09.08.2012 07:25 10,8 C 92 % 0,0 l/m 0,0 km/h (0 Bft) N 360 9,6 C 10,8 C 0,0 km/h (0 Bft)
09.08.2012 07:30 10,9 C 92 % 0,0 l/m 0,0 km/h (0 Bft) N-NO 22 9,7 C 10,9 C 0,0 km/h (0 Bft)
09.08.2012 07:35 11,3 C 92 % 0,0 l/m 0,0 km/h (0 Bft) S-SW 202 10,0 C 12,3 C 0,0 km/h (0 Bft)
09.08.2012 07:40 13,8 C 90 % 0,0 l/m 0,0 km/h (0 Bft) S-SW 202 12,2 C 12,9 C 0,0 km/h (0 Bft)
09.08.2012 07:45 14,4 C 86 % 0,0 l/m 0,0 km/h (0 Bft) W-NW 292 12,1 C 14,8 C 0,0 km/h (0 Bft)
09.08.2012 07:50 14,8 C 85 % 0,0 l/m 0,0 km/h (0 Bft) NW 315 12,3 C 15,3 C 0,0 km/h (0 Bft)
09.08.2012 07:55 14,3 C 84 % 0,0 l/m 0,0 km/h (0 Bft) N-NW 337 11,6 C 15,9 C 0,0 km/h (0 Bft)
09.08.2012 08:00 14,2 C 84 % 0,0 l/m 0,0 km/h (0 Bft) N-NW 337 11,5 C 15,4 C 0,0 km/h (0 Bft)
09.08.2012 08:05 14,0 C 84 % 0,0 l/m 0,0 km/h (0 Bft) N-NW 337 11,3 C 15,1 C 0,0 km/h (0 Bft)
09.08.2012 08:10 14,2 C 84 % 0,0 l/m 0,0 km/h (0 Bft) N-NW 337 11,5 C 15,0 C 0,0 km/h (0 Bft)
09.08.2012 08:15 15,8 C 83 % 0,0 l/m 0,0 km/h (0 Bft) NW 315 12,9 C 15,3 C 0,0 km/h (0 Bft)
09.08.2012 08:20 15,2 C 82 % 0,0 l/m 0,0 km/h (0 Bft) W-SW 247 12,1 C 15,8 C 0,0 km/h (0 Bft)
09.08.2012 08:25 15,8 C 82 % 0,0 l/m 0,0 km/h (0 Bft) W-SW 247 12,7 C 16,5 C 0,0 km/h (0 Bft)
09.08.2012 08:30 17,6 C 79 % 0,0 l/m 0,0 km/h (0 Bft) W-SW 247 14,3 C 17,5 C 0,0 km/h (0 Bft)
09.08.2012 08:35 18,2 C 74 % 0,0 l/m 0,5 km/h (0 Bft) S 180 14,0 C 18,6 C 0,0 km/h (0 Bft)
09.08.2012 08:40 18,4 C 75 % 0,0 l/m 0,6 km/h (0 Bft) S 180 15,1 C 19,2 C 0,0 km/h (0 Bft)
09.08.2012 08:45 18,7 C 68 % 0,0 l/m 0,6 km/h (0 Bft) S 180 14,4 C 21,0 C 0,0 km/h (0 Bft)
09.08.2012 08:50 18,8 C 65 % 0,0 l/m 0,5 km/h (0 Bft) N-NO 22 13,4 C 21,8 C 0,0 km/h (0 Bft)
09.08.2012 08:55 18,8 C 65 % 0,0 l/m 0,2 km/h (0 Bft) SW 225 14,2 C 23,0 C 0,0 km/h (0 Bft)
09.08.2012 09:00 19,1 C 63 % 0,0 l/m 0,6 km/h (0 Bft) W-SW 247 14,0 C 23,7 C 2,7 km/h (1 Bft)
09.08.2012 09:05 19,4 C 60 % 0,0 l/m 1,6 km/h (1 Bft) S-SW 202 13,4 C 23,8 C 4,3 km/h (1 Bft)
09.08.2012 09:10 19,4 C 60 % 0,0 l/m 2,6 km/h (1 Bft) W-SW 247 13,3 C 23,2 C 4,7 km/h (1 Bft)
09.08.2012 09:15 19,5 C 59 % 0,0 l/m 3,4 km/h (1 Bft) NW 315 12,8 C 22,8 C 6,4 km/h (2 Bft)
09.08.2012 09:20 19,4 C 59 % 0,0 l/m 3,5 km/h (1 Bft) W-NW 292 13,0 C 23,0 C 3,1 km/h (1 Bft)
09.08.2012 09:25 19,8 C 56 % 0,0 l/m 2,7 km/h (1 Bft) S-SW 202 13,1 C 23,4 C 0,0 km/h (0 Bft)
09.08.2012 09:30 19,7 C 59 % 0,0 l/m 2,1 km/h (1 Bft) SW 225 12,0 C 23,2 C 4,2 km/h (1 Bft)
09.08.2012 09:35 19,7 C 59 % 0,0 l/m 2,3 km/h (1 Bft) S 180 12,6 C 22,6 C 3,5 km/h (1 Bft)
09.08.2012 09:40 20,0 C 58 % 0,0 l/m 2,9 km/h (1 Bft) S 180 13,3 C 22,6 C 2,9 km/h (1 Bft)
09.08.2012 09:45 20,0 C 58 % 0,0 l/m 3,1 km/h (1 Bft) S 180 12,6 C 23,0 C 7,4 km/h (2 Bft)
09.08.2012 09:50 19,9 C 60 % 0,0 l/m 3,1 km/h (1 Bft) W-NW 292 12,3 C 22,4 C 5,1 km/h (1 Bft)
09.08.2012 09:55 19,6 C 62 % 0,0 l/m 2,6 km/h (1 Bft) NO 45 12,2 C 21,4 C 1,9 km/h (1 Bft)
09.08.2012 10:00 20,0 C 62 % 0,0 l/m 2,3 km/h (1 Bft) W-SW 247 12,8 C 21,8 C 3,4 km/h (1 Bft)
09.08.2012 10:05 19,9 C 59 % 0,0 l/m 2,6 km/h (1 Bft) W 270 11,8 C 21,8 C 4,8 km/h (1 Bft)
09.08.2012 10:10 19,9 C 61 % 0,0 l/m 3,4 km/h (1 Bft) W-NW 292 12,2 C 21,4 C 5,5 km/h (1 Bft)
09.08.2012 10:15 20,0 C 62 % 0,0 l/m 3,1 km/h (1 Bft) W-NW 292 13,0 C 21,8 C 5,5 km/h (1 Bft)
09.08.2012 10:20 20,3 C 61 % 0,0 l/m 2,9 km/h (1 Bft) W-SW 247 13,3 C 22,0 C 5,8 km/h (2 Bft)
09.08.2012 10:25 20,7 C 58 % 0,0 l/m 3,5 km/h (1 Bft) N-NO 22 13,3 C 22,9 C 7,6 km/h (2 Bft)
09.08.2012 10:30 20,8 C 56 % 0,0 l/m 3,9 km/h (1 Bft) NW 315 12,7 C 23,2 C 5,5 km/h (1 Bft)
09.08.2012 10:35 21,1 C 54 % 0,0 l/m 3,5 km/h (1 Bft) S 180 12,3 C 23,3 C 8,4 km/h (2 Bft)
09.08.2012 10:40 21,4 C 56 % 0,0 l/m 3,4 km/h (1 Bft) SW 225 12,7 C 24,2 C 5,1 km/h (1 Bft)
09.08.2012 10:45 21,1 C 54 % 0,0 l/m 3,2 km/h (1 Bft) W-SW 247 11,6 C 24,2 C 3,9 km/h (1 Bft)
09.08.2012 10:50 21,5 C 55 % 0,0 l/m 3,9 km/h (1 Bft) W-SW 247 12,2 C 23,5 C 3,7 km/h (1 Bft)
09.08.2012 10:55 22,1 C 51 % 0,0 l/m 3,4 km/h (1 Bft) NW 315 12,3 C 24,7 C 4,0 km/h (1 Bft)
09.08.2012 11:00 22,1 C 49 % 0,0 l/m 3,2 km/h (1 Bft) W-NW 292 10,9 C 24,7 C 6,1 km/h (2 Bft)
09.08.2012 11:05 22,0 C 49 % 0,0 l/m 3,9 km/h (1 Bft) N-NW 337 10,9 C 24,7 C 2,7 km/h (1 Bft)
09.08.2012 11:10 22,4 C 52 % 0,0 l/m 3,1 km/h (1 Bft) N 360 12,1 C 24,8 C 2,1 km/h (1 Bft)
09.08.2012 11:15 21,6 C 51 % 0,0 l/m 3,1 km/h (1 Bft) SO 135 11,0 C 25,0 C 9,5 km/h (2 Bft)
09.08.2012 11:20 21,7 C 52 % 0,0 l/m 3,2 km/h (1 Bft) N-NW 337 11,4 C 24,7 C 3,5 km/h (1 Bft)
09.08.2012 11:25 21,9 C 52 % 0,0 l/m 3,5 km/h (1 Bft) W-SW 247 11,6 C 24,3 C 4,5 km/h (1 Bft)
09.08.2012 11:30 22,2 C 51 % 0,0 l/m 3,9 km/h (1 Bft) SW 225 11,6 C 24,1 C 5,3 km/h (1 Bft)
09.08.2012 11:35 22,5 C 52 % 0,0 l/m 3,7 km/h (1 Bft) W-NW 292 12,1 C 24,4 C 3,2 km/h (1 Bft)
09.08.2012 11:40 22,7 C 52 % 0,0 l/m 3,5 km/h (1 Bft) O-NO 67 12,3 C 25,0 C 4,8 km/h (1 Bft)
09.08.2012 11:45 22,5 C 51 % 0,0 l/m 3,9 km/h (1 Bft) W-NW 292 11,8 C 25,2 C 5,3 km/h (1 Bft)
09.08.2012 11:50 22,8 C 49 % 0,0 l/m 4,3 km/h (1 Bft) W 270 11,5 C 25,0 C 6,4 km/h (2 Bft)
09.08.2012 11:55 22,5 C 51 % 0,0 l/m 3,9 km/h (1 Bft) W-SW 247 11,8 C 24,8 C 1,9 km/h (1 Bft)
09.08.2012 12:00 22,2 C 52 % 0,0 l/m 3,7 km/h (1 Bft) S-SO 157 11,9 C 24,5 C 3,7 km/h (1 Bft)
09.08.2012 12:05 21,9 C 53 % 0,0 l/m 3,2 km/h (1 Bft) N-NW 337 11,9 C 24,2 C 3,4 km/h (1 Bft)
09.08.2012 12:10 22,5 C 54 % 0,0 l/m 3,2 km/h (1 Bft) S 180 12,7 C 24,7 C 4,0 km/h (1 Bft)
09.08.2012 12:15 22,4 C 53 % 0,0 l/m 3,9 km/h (1 Bft) W-SW 247 12,3 C 24,5 C 1,8 km/h (1 Bft)
09.08.2012 12:20 23,2 C 49 % 0,0 l/m 4,3 km/h (1 Bft) N-NW 337 11,9 C 24,7 C 4,2 km/h (1 Bft)
09.08.2012 12:25 22,8 C 52 % 0,0 l/m 3,4 km/h (1 Bft) S-SW 202 12,4 C 25,2 C 3,2 km/h (1 Bft)
09.08.2012 12:30 24,0 C 48 % 0,0 l/m 3,5 km/h (1 Bft) O 90 12,4 C 25,5 C 6,0 km/h (2 Bft)
09.08.2012 12:35 22,8 C 52 % 0,0 l/m 4,0 km/h (1 Bft) N-NW 337 12,4 C 25,6 C 4,5 km/h (1 Bft)
09.08.2012 12:40 23,0 C 52 % 0,0 l/m 3,9 km/h (1 Bft) W-NW 292 12,6 C 25,6 C 2,9 km/h (1 Bft)
09.08.2012 12:45 22,2 C 54 % 0,0 l/m 3,5 km/h (1 Bft) W 270 12,4 C 25,3 C 5,3 km/h (1 Bft)
09.08.2012 12:50 21,9 C 55 % 0,0 l/m 4,0 km/h (1 Bft) W 270 12,4 C 24,8 C 5,0 km/h (1 Bft)
09.08.2012 12:55 21,9 C 56 % 0,0 l/m 4,2 km/h (1 Bft) W 270 12,7 C 24,4 C 6,8 km/h (2 Bft)
09.08.2012 13:00 22,0 C 54 % 0,0 l/m 3,4 km/h (1 Bft) N 360 12,3 C 24,2 C 0,0 km/h (0 Bft)
09.08.2012 13:05 22,0 C 55 % 0,0 l/m 2,3 km/h (1 Bft) W 270 12,5 C 24,7 C 5,3 km/h (1 Bft)
09.08.2012 13:10 22,4 C 55 % 0,0 l/m 2,3 km/h (1 Bft) W 270 12,9 C 25,0 C 6,3 km/h (2 Bft)
09.08.2012 13:15 22,4 C 54 % 0,0 l/m 3,4 km/h (1 Bft) S-SW 202 12,6 C 25,0 C 7,1 km/h (2 Bft)
09.08.2012 13:20 22,3 C 52 % 0,0 l/m 3,7 km/h (1 Bft) W-NW 292 12,0 C 25,0 C 6,3 km/h (2 Bft)
09.08.2012 13:25 22,9 C 54 % 0,0 l/m 3,5 km/h (1 Bft) S-SO 157 13,1 C 25,3 C 9,7 km/h (2 Bft)
09.08.2012 13:30 22,8 C 52 % 0,0 l/m 3,9 km/h (1 Bft) SO 135 12,4 C 25,1 C 3,2 km/h (1 Bft)
09.08.2012 13:35 23,1 C 50 % 0,0 l/m 3,9 km/h (1 Bft) NW 315 12,1 C 25,3 C 0,0 km/h (0 Bft)
09.08.2012 13:40 23,3 C 50 % 0,0 l/m 3,4 km/h (1 Bft) W 270 12,3 C 25,8 C 11,1 km/h (2 Bft)
09.08.2012 13:45 22,2 C 54 % 0,0 l/m 4,0 km/h (1 Bft) W-NW 292 12,4 C 25,0 C 6,6 km/h (2 Bft)
09.08.2012 13:50 22,1 C 55 % 0,0 l/m 4,0 km/h (1 Bft) W-SW 247 12,6 C 24,7 C 2,6 km/h (1 Bft)
09.08.2012 13:55 21,8 C 55 % 0,0 l/m 2,9 km/h (1 Bft) S 180 12,4 C 24,5 C 2,6 km/h (1 Bft)
09.08.2012 14:00 22,3 C 54 % 0,0 l/m 2,7 km/h (1 Bft) W 270 12,5 C 24,4 C 0,0 km/h (0 Bft)
09.08.2012 14:05 22,1 C 53 % 0,0 l/m 3,5 km/h (1 Bft) SW 225 12,1 C 24,1 C 3,9 km/h (1 Bft)
09.08.2012 14:10 22,5 C 53 % 0,0 l/m 3,2 km/h (1 Bft) W-SW 247 12,4 C 24,1 C 3,4 km/h (1 Bft)
09.08.2012 14:15 22,8 C 53 % 0,0 l/m 2,3 km/h (1 Bft) NW 315 12,7 C 24,6 C 1,9 km/h (1 Bft)
09.08.2012 14:20 22,9 C 49 % 0,0 l/m 2,4 km/h (1 Bft) W-NW 292 11,6 C 25,4 C 2,7 km/h (1 Bft)
09.08.2012 14:25 22,1 C 55 % 0,0 l/m 3,4 km/h (1 Bft) W 270 12,6 C 25,1 C 6,0 km/h (2 Bft)
09.08.2012 14:30 22,3 C 52 % 0,0 l/m 4,2 km/h (1 Bft) S-SW 202 12,0 C 24,5 C 5,3 km/h (1 Bft)
09.08.2012 14:35 22,5 C 49 % 0,0 l/m 3,9 km/h (1 Bft) O-SO 112 11,2 C 24,2 C 4,2 km/h (1 Bft)
09.08.2012 14:40 23,6 C 49 % 0,0 l/m 3,4 km/h (1 Bft) O-SO 112 12,2 C 24,8 C 3,1 km/h (1 Bft)
09.08.2012 14:45 23,4 C 46 % 0,0 l/m 2,7 km/h (1 Bft) N-NW 337 11,1 C 25,6 C 1,8 km/h (1 Bft)
09.08.2012 14:50 23,4 C 47 % 0,0 l/m 2,6 km/h (1 Bft) W 270 11,4 C 26,1 C 3,4 km/h (1 Bft)
09.08.2012 14:55 22,4 C 49 % 0,0 l/m 3,2 km/h (1 Bft) S-SW 202 11,2 C 25,7 C 3,1 km/h (1 Bft)
09.08.2012 15:00 22,0 C 51 % 0,0 l/m 3,7 km/h (1 Bft) S 180 11,4 C 25,1 C 4,3 km/h (1 Bft)
09.08.2012 15:05 21,2 C 53 % 0,0 l/m 3,7 km/h (1 Bft) S-SW 202 11,2 C 23,6 C 3,4 km/h (1 Bft)
09.08.2012 15:10 21,5 C 52 % 0,0 l/m 3,9 km/h (1 Bft) S 180 11,2 C 23,0 C 4,2 km/h (1 Bft)
09.08.2012 15:15 22,5 C 49 % 0,0 l/m 3,7 km/h (1 Bft) N-NW 337 11,2 C 23,1 C 4,8 km/h (1 Bft)
09.08.2012 15:20 22,6 C 49 % 0,0 l/m 2,9 km/h (1 Bft) NO 45 11,3 C 24,2 C 0,0 km/h (0 Bft)
09.08.2012 15:25 22,3 C 49 % 0,0 l/m 1,8 km/h (1 Bft) S 180 11,1 C 24,9 C 1,6 km/h (1 Bft)
09.08.2012 15:30 22,3 C 48 % 0,0 l/m 1,9 km/h (1 Bft) W 270 10,8 C 24,6 C 2,6 km/h (1 Bft)
09.08.2012 15:35 22,7 C 48 % 0,0 l/m 2,4 km/h (1 Bft) S-SW 202 11,1 C 25,0 C 6,3 km/h (2 Bft)
09.08.2012 15:40 23,9 C 47 % 0,0 l/m 2,1 km/h (1 Bft) S 180 11,9 C 25,8 C 3,2 km/h (1 Bft)
09.08.2012 15:45 24,2 C 42 % 0,0 l/m 2,9 km/h (1 Bft) S 180 10,5 C 27,7 C 1,9 km/h (1 Bft)
09.08.2012 15:50 23,5 C 46 % 0,0 l/m 2,4 km/h (1 Bft) S-SW 202 11,2 C 27,8 C 7,9 km/h (2 Bft)
09.08.2012 15:55 23,9 C 46 % 0,0 l/m 3,5 km/h (1 Bft) S 180 11,6 C 27,2 C 6,4 km/h (2 Bft)
09.08.2012 16:00 23,2 C 45 % 0,0 l/m 3,7 km/h (1 Bft) W 270 10,6 C 27,0 C 3,1 km/h (1 Bft)
09.08.2012 16:05 23,1 C 48 % 0,0 l/m 2,9 km/h (1 Bft) W-SW 247 11,5 C 25,9 C 0,0 km/h (0 Bft)
09.08.2012 16:10 23,8 C 46 % 0,0 l/m 3,2 km/h (1 Bft) SW 225 11,5 C 26,9 C 8,5 km/h (2 Bft)
09.08.2012 16:15 24,3 C 44 % 0,0 l/m 2,6 km/h (1 Bft) W 270 11,3 C 27,7 C 5,6 km/h (1 Bft)
09.08.2012 16:20 24,0 C 42 % 0,0 l/m 2,9 km/h (1 Bft) W-NW 292 10,3 C 27,9 C 3,2 km/h (1 Bft)
09.08.2012 16:25 24,1 C 43 % 0,0 l/m 2,7 km/h (1 Bft) S 180 10,7 C 28,6 C 7,4 km/h (2 Bft)
09.08.2012 16:30 22,7 C 47 % 0,0 l/m 3,4 km/h (1 Bft) N 360 10,8 C 28,0 C 4,3 km/h (1 Bft)
09.08.2012 16:35 22,1 C 48 % 0,0 l/m 5,0 km/h (1 Bft) W-SW 247 10,6 C 25,8 C 5,1 km/h (1 Bft)
09.08.2012 16:40 22,8 C 48 % 0,0 l/m 4,2 km/h (1 Bft) W-NW 292 11,2 C 25,9 C 5,3 km/h (1 Bft)
09.08.2012 16:45 22,8 C 47 % 0,0 l/m 3,7 km/h (1 Bft) O-SO 112 10,9 C 26,8 C 1,6 km/h (1 Bft)
09.08.2012 16:50 22,1 C 49 % 0,0 l/m 2,9 km/h (1 Bft) W 270 10,9 C 27,1 C 2,1 km/h (1 Bft)
09.08.2012 16:55 21,8 C 51 % 0,0 l/m 3,9 km/h (1 Bft) W-SW 247 11,2 C 26,3 C 6,4 km/h (2 Bft)
09.08.2012 17:00 21,3 C 52 % 0,0 l/m 5,0 km/h (1 Bft) SW 225 11,0 C 24,8 C 5,8 km/h (2 Bft)
09.08.2012 17:05 21,2 C 53 % 0,0 l/m 4,0 km/h (1 Bft) W-SW 247 11,2 C 24,1 C 4,2 km/h (1 Bft)
09.08.2012 17:10 20,9 C 53 % 0,0 l/m 3,9 km/h (1 Bft) S-SW 202 11,0 C 23,2 C 4,3 km/h (1 Bft)
09.08.2012 17:15 20,7 C 55 % 0,0 l/m 2,6 km/h (1 Bft) W-NW 292 11,3 C 23,2 C 0,0 km/h (0 Bft)
09.08.2012 17:20 20,7 C 56 % 0,0 l/m 1,1 km/h (1 Bft) NW 315 11,6 C 23,8 C 0,0 km/h (0 Bft)
09.08.2012 17:25 20,9 C 56 % 0,0 l/m 0,8 km/h (0 Bft) S-SO 157 11,8 C 25,8 C 3,1 km/h (1 Bft)
09.08.2012 17:30 21,1 C 52 % 0,0 l/m 2,1 km/h (1 Bft) S-SW 202 10,9 C 26,1 C 2,7 km/h (1 Bft)
09.08.2012 17:35 21,0 C 51 % 0,0 l/m 2,7 km/h (1 Bft) S-SW 202 10,5 C 26,0 C 1,8 km/h (1 Bft)
09.08.2012 17:40 20,8 C 52 % 0,0 l/m 1,6 km/h (1 Bft) S-SW 202 10,6 C 25,3 C 0,0 km/h (0 Bft)
09.08.2012 17:45 20,7 C 55 % 0,0 l/m 1,4 km/h (1 Bft) S 180 11,3 C 24,3 C 4,2 km/h (1 Bft)
09.08.2012 17:50 21,2 C 55 % 0,0 l/m 2,1 km/h (1 Bft) S 180 11,8 C 23,9 C 4,5 km/h (1 Bft)
09.08.2012 17:55 21,3 C 52 % 0,0 l/m 3,2 km/h (1 Bft) S 180 11,0 C 24,0 C 5,8 km/h (2 Bft)
09.08.2012 18:00 21,0 C 51 % 0,0 l/m 3,2 km/h (1 Bft) SW 225 10,5 C 23,6 C 5,8 km/h (2 Bft)
09.08.2012 18:05 20,5 C 55 % 0,0 l/m 3,1 km/h (1 Bft) N-NW 337 11,1 C 23,1 C 2,4 km/h (1 Bft)
09.08.2012 18:10 20,2 C 56 % 0,0 l/m 2,1 km/h (1 Bft) N-NO 22 11,1 C 22,8 C 1,9 km/h (1 Bft)
09.08.2012 18:15 20,1 C 55 % 0,0 l/m 1,0 km/h (0 Bft) N-NO 22 10,8 C 22,6 C 1,8 km/h (1 Bft)
09.08.2012 18:20 20,3 C 54 % 0,0 l/m 1,3 km/h (1 Bft) N-NO 22 10,7 C 23,8 C 5,3 km/h (1 Bft)
09.08.2012 18:25 20,5 C 53 % 0,0 l/m 1,6 km/h (1 Bft) NO 45 10,6 C 23,6 C 0,0 km/h (0 Bft)
09.08.2012 18:30 20,5 C 54 % 0,0 l/m 1,4 km/h (1 Bft) O-SO 112 10,9 C 23,3 C 0,0 km/h (0 Bft)
09.08.2012 18:35 20,6 C 54 % 0,0 l/m 0,6 km/h (0 Bft) NO 45 11,0 C 23,6 C 0,0 km/h (0 Bft)
09.08.2012 18:40 20,8 C 54 % 0,0 l/m 0,5 km/h (0 Bft) W 270 11,1 C 24,4 C 1,6 km/h (1 Bft)
09.08.2012 18:45 20,5 C 53 % 0,0 l/m 0,3 km/h (0 Bft) N 360 10,6 C 25,9 C 0,0 km/h (0 Bft)
09.08.2012 18:50 20,3 C 54 % 0,0 l/m 0,6 km/h (0 Bft) W 270 10,7 C 26,3 C 3,1 km/h (1 Bft)
09.08.2012 18:55 20,0 C 54 % 0,0 l/m 1,0 km/h (0 Bft) NO 45 10,4 C 25,6 C 0,0 km/h (0 Bft)
09.08.2012 19:00 20,0 C 55 % 0,0 l/m 0,6 km/h (0 Bft) S 180 10,7 C 25,8 C 0,0 km/h (0 Bft)
09.08.2012 19:05 19,9 C 57 % 0,0 l/m 0,0 km/h (0 Bft) NW 315 11,1 C 26,0 C 0,0 km/h (0 Bft)
09.08.2012 19:10 19,8 C 56 % 0,0 l/m 0,2 km/h (0 Bft) N-NO 22 10,8 C 25,1 C 0,0 km/h (0 Bft)
09.08.2012 19:15 19,6 C 56 % 0,0 l/m 0,5 km/h (0 Bft) N-NO 22 10,6 C 23,5 C 1,9 km/h (1 Bft)
09.08.2012 19:20 19,5 C 56 % 0,0 l/m 0,2 km/h (0 Bft) NO 45 10,5 C 22,7 C 0,0 km/h (0 Bft)
09.08.2012 19:25 19,4 C 57 % 0,0 l/m 0,3 km/h (0 Bft) N-NO 22 10,7 C 21,9 C 0,0 km/h (0 Bft)
09.08.2012 19:30 19,4 C 58 % 0,0 l/m 0,5 km/h (0 Bft) NO 45 10,9 C 21,5 C 0,0 km/h (0 Bft)
09.08.2012 19:35 19,2 C 59 % 0,0 l/m 0,3 km/h (0 Bft) N 360 11,0 C 21,0 C 0,0 km/h (0 Bft)
09.08.2012 19:40 19,2 C 59 % 0,0 l/m 0,0 km/h (0 Bft) N 360 11,0 C 21,0 C 0,0 km/h (0 Bft)
09.08.2012 19:45 19,0 C 61 % 0,0 l/m 0,0 km/h (0 Bft) N 360 11,3 C 21,3 C 0,0 km/h (0 Bft)
09.08.2012 19:50 18,8 C 62 % 0,0 l/m 0,0 km/h (0 Bft) N 360 11,4 C 20,9 C 0,0 km/h (0 Bft)
09.08.2012 19:55 18,7 C 62 % 0,0 l/m 0,0 km/h (0 Bft) N-NO 22 11,3 C 20,3 C 0,0 km/h (0 Bft)
09.08.2012 20:00 18,7 C 62 % 0,0 l/m 0,2 km/h (0 Bft) N-NO 22 11,3 C 19,7 C 1,9 km/h (1 Bft)
09.08.2012 20:05 18,5 C 62 % 0,0 l/m 0,3 km/h (0 Bft) NO 45 11,1 C 19,3 C 0,0 km/h (0 Bft)
09.08.2012 20:10 18,2 C 63 % 0,0 l/m 0,3 km/h (0 Bft) N-NW 337 11,0 C 19,0 C 0,0 km/h (0 Bft)
09.08.2012 20:15 17,7 C 66 % 0,0 l/m 0,0 km/h (0 Bft) N 360 11,3 C 18,4 C 0,0 km/h (0 Bft)
09.08.2012 20:20 17,4 C 67 % 0,0 l/m 0,0 km/h (0 Bft) O-NO 67 11,2 C 18,0 C 0,0 km/h (0 Bft)
09.08.2012 20:25 17,1 C 70 % 0,0 l/m 0,0 km/h (0 Bft) N-NW 337 11,6 C 17,5 C 0,0 km/h (0 Bft)
09.08.2012 20:30 16,8 C 71 % 0,0 l/m 0,0 km/h (0 Bft) O 90 11,5 C 17,2 C 0,0 km/h (0 Bft)
09.08.2012 20:35 16,7 C 70 % 0,0 l/m 0,0 km/h (0 Bft) N 360 11,2 C 16,7 C 0,0 km/h (0 Bft)
09.08.2012 20:40 16,4 C 70 % 0,0 l/m 0,0 km/h (0 Bft) NO 45 10,9 C 16,4 C 0,0 km/h (0 Bft)
09.08.2012 20:45 16,0 C 70 % 0,0 l/m 0,0 km/h (0 Bft) N-NO 22 10,5 C 16,0 C 0,0 km/h (0 Bft)
09.08.2012 20:50 16,0 C 71 % 0,0 l/m 0,0 km/h (0 Bft) NO 45 10,7 C 15,8 C 0,0 km/h (0 Bft)
09.08.2012 20:55 16,1 C 73 % 0,0 l/m 0,0 km/h (0 Bft) W-SW 247 11,3 C 15,8 C 0,0 km/h (0 Bft)
09.08.2012 21:00 16,0 C 74 % 0,0 l/m 0,2 km/h (0 Bft) N-NO 22 11,4 C 15,8 C 2,1 km/h (1 Bft)
09.08.2012 21:05 15,8 C 76 % 0,0 l/m 0,2 km/h (0 Bft) N-NO 22 11,6 C 15,7 C 0,0 km/h (0 Bft)
09.08.2012 21:10 15,7 C 76 % 0,0 l/m 0,0 km/h (0 Bft) NO 45 11,5 C 15,6 C 0,0 km/h (0 Bft)
09.08.2012 21:15 15,5 C 77 % 0,0 l/m 0,2 km/h (0 Bft) N-NO 22 11,5 C 15,3 C 0,0 km/h (0 Bft)
09.08.2012 21:20 15,4 C 77 % 0,0 l/m 0,2 km/h (0 Bft) NO 45 11,4 C 15,1 C 1,6 km/h (1 Bft)
09.08.2012 21:25 15,4 C 77 % 0,0 l/m 0,0 km/h (0 Bft) O-NO 67 11,4 C 15,0 C 0,0 km/h (0 Bft)
09.08.2012 21:30 15,3 C 77 % 0,0 l/m 0,0 km/h (0 Bft) N-NO 22 11,3 C 15,0 C 0,0 km/h (0 Bft)
09.08.2012 21:35 15,0 C 78 % 0,0 l/m 0,0 km/h (0 Bft) NO 45 11,2 C 14,9 C 0,0 km/h (0 Bft)
09.08.2012 21:40 14,9 C 78 % 0,0 l/m 0,0 km/h (0 Bft) NO 45 11,1 C 14,6 C 0,0 km/h (0 Bft)
09.08.2012 21:45 14,6 C 78 % 0,0 l/m 0,0 km/h (0 Bft) NO 45 10,8 C 14,3 C 0,0 km/h (0 Bft)
09.08.2012 21:50 14,5 C 79 % 0,0 l/m 0,0 km/h (0 Bft) N-NO 22 10,9 C 14,1 C 0,0 km/h (0 Bft)
09.08.2012 21:55 14,3 C 79 % 0,0 l/m 0,0 km/h (0 Bft) N-NO 22 10,7 C 13,9 C 0,0 km/h (0 Bft)
09.08.2012 22:00 14,2 C 79 % 0,0 l/m 0,0 km/h (0 Bft) NO 45 10,6 C 13,8 C 0,0 km/h (0 Bft)
09.08.2012 22:05 14,1 C 79 % 0,0 l/m 0,0 km/h (0 Bft) NO 45 10,5 C 13,7 C 0,0 km/h (0 Bft)
09.08.2012 22:10 14,0 C 79 % 0,0 l/m 0,0 km/h (0 Bft) NO 45 10,4 C 13,7 C 0,0 km/h (0 Bft)
09.08.2012 22:15 13,9 C 80 % 0,0 l/m 0,0 km/h (0 Bft) NO 45 10,5 C 13,5 C 0,0 km/h (0 Bft)
09.08.2012 22:20 13,9 C 80 % 0,0 l/m 0,0 km/h (0 Bft) NO 45 10,5 C 13,5 C 0,0 km/h (0 Bft)
09.08.2012 22:25 13,9 C 80 % 0,0 l/m 0,0 km/h (0 Bft) NO 45 10,5 C 13,4 C 0,0 km/h (0 Bft)
09.08.2012 22:30 14,0 C 79 % 0,0 l/m 0,0 km/h (0 Bft) N-NO 22 10,4 C 13,4 C 0,0 km/h (0 Bft)
09.08.2012 22:35 13,9 C 80 % 0,0 l/m 0,0 km/h (0 Bft) N-NO 22 10,5 C 13,4 C 0,0 km/h (0 Bft)
09.08.2012 22:40 14,0 C 80 % 0,0 l/m 0,0 km/h (0 Bft) NO 45 10,6 C 13,5 C 0,0 km/h (0 Bft)
09.08.2012 22:45 14,2 C 79 % 0,0 l/m 0,0 km/h (0 Bft) N-NO 22 10,6 C 13,7 C 0,0 km/h (0 Bft)
09.08.2012 22:50 14,3 C 79 % 0,0 l/m 0,0 km/h (0 Bft) N-NO 22 10,7 C 13,7 C 0,0 km/h (0 Bft)
09.08.2012 22:55 14,3 C 79 % 0,0 l/m 0,0 km/h (0 Bft) S-SO 157 10,7 C 13,9 C 0,0 km/h (0 Bft)
09.08.2012 23:00 14,4 C 79 % 0,0 l/m 0,0 km/h (0 Bft) S-SW 202 10,8 C 14,0 C 0,0 km/h (0 Bft)
09.08.2012 23:05 14,4 C 79 % 0,0 l/m 0,0 km/h (0 Bft) NO 45 10,8 C 14,1 C 0,0 km/h (0 Bft)
09.08.2012 23:10 14,4 C 79 % 0,0 l/m 0,0 km/h (0 Bft) S-SW 202 10,8 C 14,3 C 0,0 km/h (0 Bft)
09.08.2012 23:15 14,5 C 79 % 0,0 l/m 0,2 km/h (0 Bft) S 180 10,9 C 14,4 C 0,0 km/h (0 Bft)
09.08.2012 23:20 14,4 C 79 % 0,0 l/m 0,0 km/h (0 Bft) N-NO 22 10,8 C 14,3 C 0,0 km/h (0 Bft)
09.08.2012 23:25 14,3 C 79 % 0,0 l/m 0,0 km/h (0 Bft) S-SW 202 10,7 C 14,2 C 0,0 km/h (0 Bft)
09.08.2012 23:30 14,2 C 79 % 0,0 l/m 0,0 km/h (0 Bft) W-NW 292 10,6 C 14,1 C 0,0 km/h (0 Bft)
09.08.2012 23:35 14,0 C 79 % 0,0 l/m 0,0 km/h (0 Bft) S-SO 157 10,4 C 13,9 C 0,0 km/h (0 Bft)
09.08.2012 23:40 13,8 C 80 % 0,0 l/m 0,0 km/h (0 Bft) SO 135 10,4 C 13,7 C 0,0 km/h (0 Bft)
09.08.2012 23:45 13,6 C 80 % 0,0 l/m 0,0 km/h (0 Bft) NO 45 10,2 C 13,2 C 0,0 km/h (0 Bft)
09.08.2012 23:50 13,4 C 80 % 0,0 l/m 0,0 km/h (0 Bft) NO 45 10,0 C 13,0 C 0,0 km/h (0 Bft)
09.08.2012 23:55 13,1 C 80 % 0,0 l/m 0,0 km/h (0 Bft) N 360 9,7 C 12,7 C 0,0 km/h (0 Bft)
_ Min-Zeit 04:35 16:20 - 23:55 - - 04:35 04:35 23:55
Minimum _ 9,4 C 42 % - 0,0 km/h (0 Bft) - - 8,0 C 8,9 C 0,0 km/h (0 Bft)
_ Max-Zeit 16:15 07:35 23:55 17:00 - - 08:40 16:25 13:40
Maximum _ 24,3 C 92 % 0,0 l/m 5,0 km/h
SW (1 Bft)
- - 15,1 C 28,6 C 11,1 km/h
W (2 Bft)
Durchschnitt _ 16,6 C 70 % #0,0 l/m 1,3 km/h (1 Bft) S - 10,7 C 17,8 C 1,7 km/h (1 Bft)